Weather History for Douglas, WY

Change the Weather History Date:

Sunday, December 25, 2011

  Actual Average Record
Temperature  
Mean Temperature 22 °F 24 °F  
Max Temperature 42 °F 38 °F 51 °F (1999)
Min Temperature 1 °F 10 °F -7 °F (2012)
Degree Days  
Heating Degree Days 43 41  
Month to date heating degree days 1113 1021  
Since 1 July heating degree days 2739 2843  
Cooling Degree Days 0 0  
Month to date cooling degree days 0 0  
Year to date cooling degree days 641 486  
Moisture  
Dew Point 6 °F    
Average Humidity 75    
Maximum Humidity 87    
Minimum Humidity 62    
Precipitation  
Precipitation 0.00 in 0.01 in 0.22 in (2009)
Month to date precipitation 0.34 0.33  
Year to date precipitation 13.52 13.32  
Sea Level Pressure  
Sea Level Pressure 30.48 in    
Wind  
Wind Speed 1 mph (WSW)    
Max Wind Speed 20 mph    
Max Gust Speed 25 mph    
Visibility 10 miles    
Events      
T = Trace of Precipitation, MM = Missing Value Source: NWS Daily Summary

Daily Weather History Graph

Daily Weather History Graph

Search for Another Location

Airport:

Trip Planner

Search our weather history database for the weather conditions in past years. The results will help you decide how hot, cold, wet, or windy it might be!

Date:

Astronomy

Dec. 25, 2011 Rise Set
Actual Time 7:30 AM MST 4:32 PM MST
Civil Twilight 6:58 AM MST 5:04 PM MST
Nautical Twilight 6:22 AM MST 5:40 PM MST
Astronomical Twilight 5:48 AM MST 6:15 PM MST
Moon 8:09 AM MST (12/25) 5:57 PM MST (12/25)
Length of Visible Light 10h 06m
Length of Day
9h 02m
New Moon, 1% of the Moon is Illuminated
Dec 25
New Moon
Dec 31
First Quarter
Jan 9
Full
Jan 16
Last Quarter
Jan 23
New

Hourly Weather History & Observations

Time (MST) Temp. Windchill Dew Point Humidity Pressure Visibility Wind Dir Wind Speed Gust Speed Precip Events Conditions
12:53 AM 9.0 °F - 3.0 °F 77% 30.69 in 10.0 mi Calm Calm - N/A   Clear
1:53 AM 6.1 °F -2.8 °F 1.9 °F 83% 30.69 in 10.0 mi WNW 4.6 mph - N/A   Clear
2:53 AM 12.9 °F 3.8 °F 5.0 °F 71% 30.62 in 10.0 mi NNW 5.8 mph - N/A   Clear
3:53 AM 8.1 °F - 1.9 °F 76% 30.63 in 10.0 mi Calm Calm - N/A   Clear
5:53 AM 3.9 °F -3.4 °F -0.0 °F 84% 30.67 in 10.0 mi NNW 3.5 mph - N/A   Clear
6:53 AM 3.0 °F - -0.0 °F 87% 30.68 in 10.0 mi Calm Calm - N/A   Clear
7:53 AM 1.9 °F - -2.9 °F 80% 30.68 in 10.0 mi Calm Calm - N/A   Clear
8:53 AM 5.0 °F - -0.0 °F 80% 30.67 in 10.0 mi Calm Calm - N/A   Clear
9:53 AM 10.0 °F - 3.9 °F 76% 30.65 in 10.0 mi Calm Calm - N/A   Clear
10:53 AM 12.9 °F - 6.1 °F 74% 30.61 in 10.0 mi Calm Calm - N/A   Clear
11:53 AM 17.1 °F - 8.1 °F 68% 30.54 in 10.0 mi Calm Calm - N/A   Clear
12:53 PM 21.9 °F - 10.9 °F 63% 30.49 in 10.0 mi Calm Calm - N/A   Clear
1:53 PM 21.0 °F - 12.0 °F 68% 30.47 in 10.0 mi Calm Calm - N/A   Clear
2:53 PM 21.9 °F - 12.9 °F 68% 30.41 in 10.0 mi Calm Calm - N/A   Clear
4:53 PM 16.0 °F 10.4 °F 9.0 °F 74% 30.40 in 10.0 mi SSE 3.5 mph - N/A   Clear
5:53 PM 14.0 °F 8.2 °F 9.0 °F 80% 30.38 in 10.0 mi SE 3.5 mph - N/A   Clear
7:53 PM 10.9 °F - 7.0 °F 84% 30.30 in 10.0 mi Calm Calm - N/A   Clear
8:53 PM 8.1 °F 1.4 °F 3.0 °F 80% 30.26 in 10.0 mi SSE 3.5 mph - N/A   Clear
9:53 PM 10.9 °F - 6.1 °F 81% 30.20 in 10.0 mi Calm Calm - N/A   Clear
10:53 PM 25.0 °F - 14.0 °F 63% 30.11 in 10.0 mi Calm Calm - N/A   Clear
11:53 PM 39.9 °F 33.9 °F 21.0 °F 47% 30.01 in 10.0 mi West 9.2 mph 18.4 mph N/A   Clear